When you browse on this site, cookies collect data to enhance your experience and personalize the content and advertising you see.
Visit our Privacy Policy to learn more. By continuing to use the site, you agree to this use of cookies and data.

Hourly Weather Townsville

Today, 12 July, Sunday

Time Temperature Precipitation Wind Pressure Humidity
00:00 +20°C° 0 mm 3 mps 755 mmHg 92%
01:00 +19°C° 0 mm 3 mps 754 mmHg 92%
02:00 +19°C° 0 mm 3 mps 754 mmHg 93%
03:00 +19°C° 0 mm 3 mps 754 mmHg 93%
04:00 +19°C° 0 mm 2 mps 754 mmHg 93%
05:00 +19°C° 0 mm 2 mps 754 mmHg 93%
06:00 +18°C° 0 mm 2 mps 754 mmHg 93%
07:00 +18°C° 0 mm 2 mps 755 mmHg 93%
08:00 +20°C° 0 mm 2 mps 755 mmHg 85%
09:00 +23°C° 0 mm 2 mps 755 mmHg 78%
10:00 +25°C° 0 mm 2 mps 755 mmHg 72%
11:00 +25°C° 0 mm 2 mps 755 mmHg 68%
12:00 +26°C° 0 mm 2 mps 754 mmHg 64%
13:00 +27°C° 0 mm 2 mps 753 mmHg 60%
14:00 +26°C° 0 mm 2 mps 753 mmHg 63%
15:00 +26°C° 0 mm 2 mps 753 mmHg 67%
16:00 +25°C° 0 mm 2 mps 753 mmHg 70%
17:00 +24°C° 0 mm 1 mps 753 mmHg 74%
18:00 +23°C° 0 mm 1 mps 754 mmHg 78%
19:00 +20°C° 0 mm 0 mps 754 mmHg 82%
20:00 +22°C° 0 mm 1 mps 754 mmHg 81%
21:00 +22°C° 0 mm 1 mps 755 mmHg 79%
22:00 +22°C° 0 mm 1 mps 755 mmHg 78%
23:00 +22°C° 0 mm 1 mps 755 mmHg 74%

Tomorrow, 13 July, Monday

Time Temperature Precipitation Wind Pressure Humidity
00:00 +20°C° 0 mm 2 mps 755 mmHg 70%
01:00 +20°C° 0 mm 2 mps 755 mmHg 66%
02:00 +19°C° 0 mm 3 mps 755 mmHg 57%
03:00 +19°C° 0 mm 4 mps 755 mmHg 49%
04:00 +17°C° 0 mm 5 mps 755 mmHg 41%
05:00 +17°C° 0 mm 5 mps 756 mmHg 41%
06:00 +16°C° 0 mm 5 mps 756 mmHg 40%
07:00 +15°C° 0 mm 5 mps 756 mmHg 40%
08:00 +17°C° 0 mm 5 mps 757 mmHg 37%
09:00 +19°C° 0 mm 5 mps 757 mmHg 34%
10:00 +21°C° 0 mm 5 mps 757 mmHg 30%
11:00 +22°C° 0 mm 5 mps 757 mmHg 30%
12:00 +23°C° 0 mm 5 mps 756 mmHg 30%
13:00 +25°C° 0 mm 4 mps 756 mmHg 29%
14:00 +25°C° 0 mm 4 mps 755 mmHg 30%
15:00 +25°C° 0 mm 4 mps 755 mmHg 31%
16:00 +25°C° 0 mm 4 mps 755 mmHg 32%
17:00 +22°C° 0 mm 4 mps 755 mmHg 36%
18:00 +21°C° 0 mm 4 mps 756 mmHg 39%
19:00 +19°C° 0 mm 4 mps 756 mmHg 42%
20:00 +18°C° 0 mm 4 mps 757 mmHg 41%
21:00 +17°C° 0 mm 4 mps 757 mmHg 39%
22:00 +15°C° 0 mm 4 mps 758 mmHg 38%
23:00 +15°C° 0 mm 4 mps 757 mmHg 38%

Day after tomorrow, 14 July, Tuesday

Time Temperature Precipitation Wind Pressure Humidity
00:00 +14°C° 0 mm 4 mps 757 mmHg 37%
01:00 +14°C° 0 mm 4 mps 757 mmHg 37%
02:00 +13°C° 0 mm 4 mps 757 mmHg 38%
03:00 +13°C° 0 mm 4 mps 757 mmHg 40%
04:00 +12°C° 0 mm 4 mps 757 mmHg 41%
05:00 +12°C° 0 mm 4 mps 757 mmHg 43%
06:00 +11°C° 0 mm 4 mps 758 mmHg 46%
07:00 +11°C° 0 mm 4 mps 758 mmHg 48%
08:00 +13°C° 0 mm 4 mps 758 mmHg 43%
09:00 +15°C° 0 mm 4 mps 759 mmHg 39%
10:00 +19°C° 0 mm 4 mps 759 mmHg 34%
11:00 +20°C° 0 mm 4 mps 758 mmHg 31%
12:00 +22°C° 0 mm 4 mps 757 mmHg 28%
13:00 +24°C° 0 mm 3 mps 756 mmHg 25%
14:00 +24°C° 0 mm 3 mps 756 mmHg 26%
15:00 +24°C° 0 mm 3 mps 756 mmHg 27%
16:00 +24°C° 0 mm 3 mps 756 mmHg 27%
17:00 +21°C° 0 mm 3 mps 756 mmHg 34%
18:00 +19°C° 0 mm 3 mps 756 mmHg 40%
19:00 +16°C° 0 mm 2 mps 757 mmHg 47%
20:00 +16°C° 0 mm 2 mps 757 mmHg 47%
21:00 +15°C° 0 mm 2 mps 757 mmHg 48%
22:00 +14°C° 0 mm 2 mps 758 mmHg 48%
23:00 +14°C° 0 mm 2 mps 757 mmHg 48%

15 July, Wednesday

Time Temperature Precipitation Wind Pressure Humidity
00:00 +13°C° 0 mm 2 mps 757 mmHg 49%
01:00 +12°C° 0 mm 3 mps 757 mmHg 49%
02:00 +12°C° 0 mm 3 mps 757 mmHg 49%
03:00 +11°C° 0 mm 3 mps 756 mmHg 49%
04:00 +11°C° 0 mm 3 mps 756 mmHg 50%
05:00 +11°C° 0 mm 3 mps 757 mmHg 50%
06:00 +11°C° 0 mm 3 mps 757 mmHg 50%
07:00 +10°C° 0 mm 3 mps 757 mmHg 51%
08:00 +13°C° 0 mm 3 mps 757 mmHg 44%
09:00 +17°C° 0 mm 2 mps 757 mmHg 38%
10:00 +19°C° 0 mm 2 mps 757 mmHg 32%
11:00 +21°C° 0 mm 2 mps 757 mmHg 30%
12:00 +23°C° 0 mm 2 mps 756 mmHg 28%
13:00 +24°C° 0 mm 2 mps 755 mmHg 26%
14:00 +24°C° 0 mm 2 mps 755 mmHg 28%
15:00 +24°C° 0 mm 2 mps 755 mmHg 31%
16:00 +23°C° 0 mm 2 mps 754 mmHg 33%
17:00 +20°C° 0 mm 2 mps 755 mmHg 41%
18:00 +18°C° 0 mm 1 mps 755 mmHg 50%
19:00 +15°C° 0 mm 1 mps 755 mmHg 58%
20:00 +15°C° 0 mm 1 mps 756 mmHg 58%
21:00 +14°C° 0 mm 1 mps 756 mmHg 57%
22:00 +14°C° 0 mm 1 mps 757 mmHg 57%
23:00 +14°C° 0 mm 1 mps 757 mmHg 57%

16 July, Thursday

Time Temperature Precipitation Wind Pressure Humidity
00:00 +13°C° 0 mm 2 mps 756 mmHg 57%
01:00 +13°C° 0 mm 2 mps 756 mmHg 57%
02:00 +13°C° 0 mm 2 mps 756 mmHg 57%
03:00 +13°C° 0 mm 2 mps 756 mmHg 57%
04:00 +13°C° 0 mm 2 mps 756 mmHg 57%
05:00 +12°C° 0 mm 2 mps 756 mmHg 56%
06:00 +12°C° 0 mm 2 mps 756 mmHg 54%
07:00 +11°C° 0 mm 3 mps 756 mmHg 52%
08:00 +14°C° 0 mm 3 mps 757 mmHg 46%
09:00 +17°C° 0 mm 3 mps 757 mmHg 40%
10:00 +20°C° 0 mm 3 mps 757 mmHg 34%
11:00 +21°C° 0 mm 2 mps 756 mmHg 32%
12:00 +23°C° 0 mm 2 mps 756 mmHg 30%
13:00 +25°C° 0 mm 2 mps 755 mmHg 28%
14:00 +25°C° 0 mm 2 mps 755 mmHg 30%
15:00 +24°C° 0 mm 2 mps 754 mmHg 31%
16:00 +24°C° 0 mm 2 mps 754 mmHg 32%
17:00 +21°C° 0 mm 2 mps 754 mmHg 38%
18:00 +20°C° 0 mm 1 mps 755 mmHg 43%
19:00 +16°C° 0 mm 1 mps 755 mmHg 49%
20:00 +16°C° 0 mm 1 mps 755 mmHg 48%
21:00 +15°C° 0 mm 2 mps 756 mmHg 47%
22:00 +15°C° 0 mm 2 mps 756 mmHg 45%
23:00 +14°C° 0 mm 2 mps 756 mmHg 45%

17 July, Friday

Time Temperature Precipitation Wind Pressure Humidity
00:00 +14°C° 0 mm 2 mps 756 mmHg 45%
01:00 +13°C° 0 mm 2 mps 755 mmHg 46%
02:00 +13°C° 0 mm 2 mps 755 mmHg 45%
03:00 +13°C° 0 mm 2 mps 755 mmHg 45%
04:00 +12°C° 0 mm 3 mps 755 mmHg 45%
05:00 +11°C° 0 mm 3 mps 755 mmHg 46%
06:00 +11°C° 0 mm 3 mps 756 mmHg 46%
07:00 +11°C° 0 mm 3 mps 756 mmHg 47%
08:00 +13°C° 0 mm 3 mps 757 mmHg 42%
09:00 +17°C° 0 mm 3 mps 757 mmHg 37%
10:00 +19°C° 0 mm 2 mps 757 mmHg 32%
11:00 +21°C° 0 mm 2 mps 756 mmHg 30%
12:00 +23°C° 0 mm 2 mps 756 mmHg 28%
13:00 +24°C° 0 mm 2 mps 755 mmHg 26%
14:00 +23°C° 0 mm 2 mps 755 mmHg 29%
15:00 +23°C° 0 mm 2 mps 754 mmHg 32%
16:00 +21°C° 0 mm 3 mps 754 mmHg 35%
17:00 +19°C° 0 mm 2 mps 754 mmHg 44%
18:00 +17°C° 0 mm 2 mps 755 mmHg 53%
19:00 +14°C° 0 mm 1 mps 755 mmHg 62%
20:00 +14°C° 0 mm 1 mps 756 mmHg 64%
21:00 +14°C° 0 mm 2 mps 756 mmHg 66%
22:00 +13°C° 0 mm 2 mps 756 mmHg 68%
23:00 +13°C° 0 mm 2 mps 756 mmHg 70%
Show more